User: anonymous   Login
Location: Columbia
(38.9520°N, 92.3340°W)
Time: 22:00:42
(UTC-06:00)
Language:

CZ-2C R/B - Orbit

View from above orbital plane
View from above orbital plane
View from above satellite
View from above satellite

Ground track
Ground track

The orbit data is extracted from the following two-line orbital elements,

1 28480U 04046B   16038.88018280  .00000102  00000-0  54828-4 0  9993
2 28480  98.1667 161.5103 0141091 246.2956 221.9570 14.25566964583660
Epoch (UTC): 07 February 2016 21:07:27
Eccentricity: 0.0141091
inclination: 98.1667°
perigee height: 705 km
apogee height: 908 km
right ascension of ascending node: 161.5103°
argument of perigee: 246.2956°
revolutions per day: 14.25566964
mean anomaly at epoch: 221.9570°
orbit number at epoch: 58366

The dashed part of the orbit path shows where the satellite is in the earth's shadow,  

DLR